Cloud_Cover
59 5 4 5 0 5 25 99 100 58 15 78 64 3 49 0 0 0 0 0 0 0
12 5 5 0 0 4 5 6 9 5 7 12 100 100 8 5 4 0 0 0 0 1
9 5 1 0 0 0 0 0 0 0 5 5 47 100 96 36 5 1 11 84 70 41
71 5 0 0 0 0 0 0 0 1 1 5 8 100 100 98 100 6 56 24 52 91
31 48 0 2 0 0 0 0 0 0 4 5 5 27 69 91 17 14 83 14 22 62
29 21 5 5 5 5 0 0 0 0 0 4 5 5 26 5 5 35 50 5 6 14
71 28 48 5 3 5 5 4 3 4 2 5 54 53 5 32 68 5 64 7 6 52
87 99 92 33 5 5 87 10 5 4 3 4 5 14 5 5 55 26 100 25 39 9
45 100 93 99 62 5 5 5 5 1 5 5 5 5 5 83 100 100 14 39 23 70
53 85 9 23 92 100 72 70 82 5 5 5 4 4 36 100 100 100 100 94 98 32
4 33 88 14 16 44 87 86 51 83 64 5 4 30 70 100 100 100 100 100 100 97
98 29 98 33 5 10 100 100 100 68 74 41 5 100 98 100 100 100 100 100 100 99
10 52 98 14 25 62 100 100 95 100 100 71 99 100 100 100 100 100 100 100 100 100
0 84 100 83 44 5 10 10 96 80 100 100 100 100 100 100 100 100 100 100 100 100